Voltar ao catálogo

STARLINK-5320

AtivoComunicaçõesVLEO
NORAD 55289·PAYLOAD·🇺🇸 United States

Lançado Jan 19, 2023 de Vandenberg Space Force Base

Loading…

Próximas Passagens (próximas 24 horas)

TLE

AtualizadoSource: CelesTrak SupGP

Época: Sep 15, 2026, 01:21 UTC

1 55289C 23010W   26258.05673611 -.00007131  00000+0 -59745-3 0  2581
2 55289  69.9995 267.0786 0004156 266.4045  48.6550 14.98342702    16

Acompanhe STARLINK-5320 em tempo real com AllMySat

Download on the App Store